DW0805 Ramloese DK current weather conditions

sailwx.info

Wind from 001 at 8 knots gusting 15

Air temperature 11.7° C
Dewpoint 9.9° C

Last reported at 2014-Sep-21 21:55 UTC.
Time now 2014-Sep-21 22:15 UTC

Location: N 56°01' E 012°05'.
View on Google Maps.

See reports from other nearby stations

  
Tides and Currents Weather Stations Pressure Air Temp Water Temp Dewpoint Dewpoint Depression Visibility Wind Speed Wind Dir Waves Ship Positions
date/time (UTC)wind fromknots sea level pressurealtimeterstation pressurevisibilityair tempwater tempwave heightnotes
2014-Sep-21 21:55 001 8 gusting 15 11.7
2014-Sep-21 21:45 009 10 gusting 15 11.7
2014-Sep-21 21:35 344 13 gusting 19 12.2
2014-Sep-21 21:25 13.9
2014-Sep-21 21:15 004 7 gusting 14 13.3
2014-Sep-21 21:05 357 9 gusting 15 13.3
2014-Sep-21 20:55 350 9 gusting 15 13.3
2014-Sep-21 20:45 355 7 gusting 17 13.3
2014-Sep-21 20:35 359 8 gusting 15 13.3
2014-Sep-21 20:25 010 11 gusting 19 13.9
2014-Sep-21 20:15 348 7 gusting 19 13.9
2014-Sep-21 20:05 358 13 gusting 19 13.9
2014-Sep-21 19:55 340 8 gusting 17 13.9
2014-Sep-21 19:45 007 10 gusting 19 13.9
2014-Sep-21 19:35 344 13 gusting 19 13.9
2014-Sep-21 19:25 354 10 gusting 18 13.9
2014-Sep-21 19:15 017 12 gusting 19 13.9
2014-Sep-21 19:05 330 10 gusting 18 13.9
2014-Sep-21 18:55 342 10 gusting 15 13.9
2014-Sep-21 18:45 347 10 gusting 15 14.4
2014-Sep-21 18:35 343 6 gusting 15 14.4
2014-Sep-21 18:25 344 10 gusting 15 14.4
2014-Sep-21 18:15 353 10 gusting 18 14.4
2014-Sep-21 18:05 002 8 gusting 15 14.4
2014-Sep-21 17:55 340 6 gusting 13 13.9
2014-Sep-21 17:45 327 6 gusting 17 14.4
2014-Sep-21 17:35 324 8 gusting 15 14.4
2014-Sep-21 17:25 340 7 gusting 14 13.9
2014-Sep-21 17:15 347 6 gusting 15 14.4
2014-Sep-21 17:05 346 8 gusting 15 15.0
2014-Sep-21 16:55 352 9 gusting 15 15.0
2014-Sep-21 16:45 357 6 gusting 15 15.6
2014-Sep-21 16:35 346 6 gusting 13 15.6
2014-Sep-21 16:25 356 6 gusting 12 15.6
2014-Sep-21 16:15 16.1
2014-Sep-21 16:05 343 8 gusting 14 16.1
2014-Sep-21 15:55 336 7 gusting 15 16.1
2014-Sep-21 15:45 309 7 gusting 15 16.1
2014-Sep-21 15:35 350 8 gusting 14 16.1
2014-Sep-21 15:25 344 5 gusting 13 16.1
2014-Sep-21 15:15 335 6 gusting 10 16.1
2014-Sep-21 15:05 326 6 gusting 13 16.7
2014-Sep-21 14:55 310 4 gusting 13 17.2
2014-Sep-21 14:45 327 7 gusting 11 16.7
2014-Sep-21 14:35 333 7 gusting 12 16.7
2014-Sep-21 14:25 328 5 gusting 13 17.2
2014-Sep-21 14:15 281 7 gusting 12 17.2
2014-Sep-21 14:05 320 6 gusting 12 16.7
2014-Sep-21 13:55 291 6 gusting 14 16.7
2014-Sep-21 13:45 306 7 gusting 14 17.2
2014-Sep-21 13:35 304 6 gusting 15 17.8
2014-Sep-21 13:25 316 9 gusting 14 17.2
2014-Sep-21 13:15 307 7 gusting 13 16.7
2014-Sep-21 13:05 303 5 gusting 14 16.7
2014-Sep-21 12:55 298 10 gusting 14 16.7
2014-Sep-21 12:45 319 9 gusting 14 17.2
2014-Sep-21 12:35 297 10 gusting 14 17.2
2014-Sep-21 12:15 315 6 gusting 10 16.1
2014-Sep-21 12:05 315 9 gusting 13 16.1
2014-Sep-21 11:55 331 7 gusting 11 15.6
2014-Sep-21 11:45 325 6 gusting 10 15.6
2014-Sep-21 11:35 334 5 gusting 13 15.6
2014-Sep-21 11:25 305 5 gusting 11 15.0
2014-Sep-21 11:15 318 6 gusting 11 15.0
2014-Sep-21 11:05 320 6 gusting 12 15.0
2014-Sep-21 10:55 327 6 gusting 10 15.0
2014-Sep-21 10:45 317 3 gusting 12 14.4
2014-Sep-21 10:35 324 5 gusting 10 14.4
2014-Sep-21 10:25 314 6 gusting 11 14.4
2014-Sep-21 10:15 306 5 gusting 11 14.4
2014-Sep-21 10:05 314 3 gusting 7 14.4
2014-Sep-21 09:55 308 3 gusting 11 15.0
2014-Sep-21 09:45 313 4 gusting 13 15.0
2014-Sep-21 09:35 302 5 gusting 12 15.6
2014-Sep-21 09:25 309 2 gusting 8 16.1
2014-Sep-21 09:15 324 7 gusting 11 15.6
2014-Sep-21 09:05 312 6 gusting 11 15.6
2014-Sep-21 08:55 306 6 gusting 13 15.6
2014-Sep-21 08:45 321 2 gusting 13 15.0
2014-Sep-21 08:35 321 4 gusting 11 15.0
2014-Sep-21 08:25 324 5 gusting 11 14.4
2014-Sep-21 08:15 323 4 gusting 8 14.4
2014-Sep-21 08:05 310 5 gusting 7 14.4
2014-Sep-21 07:55 316 2 gusting 8 14.4
2014-Sep-21 07:45 318 4 gusting 7 14.4
2014-Sep-21 07:35 250 4 gusting 6 14.4
2014-Sep-21 07:25 305 1 gusting 4 14.4
2014-Sep-21 07:15 253 14.4
2014-Sep-21 07:05 298 14.4
2014-Sep-21 06:55 270 13.9
2014-Sep-21 06:45 280 13.9
2014-Sep-21 06:35 258 13.9
2014-Sep-21 06:25 308 0 gusting 2 13.9
2014-Sep-21 06:15 261 1 gusting 2 13.9
2014-Sep-21 06:05 241 0 gusting 4 13.9
2014-Sep-21 05:55 277 0 gusting 4 13.9
2014-Sep-21 05:45 305 2 gusting 6 13.9
2014-Sep-21 05:35 239 1 gusting 5 13.9
2014-Sep-21 05:25 239 1 gusting 6 13.9
2014-Sep-21 05:15 237 2 gusting 6 13.9
2014-Sep-21 05:05 190 2 gusting 5 14.4
2014-Sep-21 04:55 190 1 gusting 5 14.4
2014-Sep-21 04:45 190 1 gusting 5 14.4
2014-Sep-21 04:35 190 0 gusting 4 14.4
2014-Sep-21 04:25 190 0 gusting 2 14.4
2014-Sep-21 04:15 190 14.4
2014-Sep-21 04:05 190 0 gusting 2 13.9
2014-Sep-21 03:55 190 1 gusting 4 14.4
2014-Sep-21 03:45 190 13.9
2014-Sep-21 03:35 190 14.4
2014-Sep-21 03:25 190 1 gusting 4 14.4
2014-Sep-21 03:15 190 0 gusting 5 14.4
2014-Sep-21 03:05 190 2 gusting 5 14.4
2014-Sep-21 02:55 190 1 gusting 5 14.4
2014-Sep-21 02:45 190 3 gusting 6 14.4
2014-Sep-21 02:35 190 2 gusting 5 14.4
2014-Sep-21 02:25 190 2 gusting 5 14.4
2014-Sep-21 02:15 190 1 gusting 5 14.4
2014-Sep-21 02:05 190 1 gusting 5 14.4
2014-Sep-21 01:55 190 1 gusting 5 14.4
2014-Sep-21 01:45 190 2 gusting 5 14.4
2014-Sep-21 01:35 190 2 gusting 5 14.4
2014-Sep-21 01:25 190 2 gusting 5 14.4
2014-Sep-21 01:15 190 2 gusting 6 14.4
2014-Sep-21 01:05 190 2 gusting 5 14.4
2014-Sep-21 00:55 190 2 gusting 6 14.4
2014-Sep-21 00:45 190 2 gusting 5 14.4
2014-Sep-21 00:35 190 2 gusting 6 14.4
2014-Sep-21 00:25 190 2 gusting 5 14.4
2014-Sep-21 00:15 190 0 gusting 1 14.4
2014-Sep-21 00:05 190 0 gusting 2 13.9
2014-Sep-20 23:55 190 0 gusting 2 13.9
2014-Sep-20 23:45 190 13.3
2014-Sep-20 23:35 190 13.3
2014-Sep-20 23:25 190 13.3
2014-Sep-20 23:15 190 13.9
2014-Sep-20 23:05 190 0 gusting 2 13.3
2014-Sep-20 22:55 190 12.8
2014-Sep-20 22:45 190 12.8
2014-Sep-20 22:35 190 12.8
2014-Sep-20 22:25 190 12.2
2014-Sep-20 22:15 190 12.2
2014-Sep-20 22:05 190 12.2
2014-Sep-20 21:55 190 12.2
2014-Sep-20 21:45 190 12.2
2014-Sep-20 21:35 190 12.8
2014-Sep-20 21:25 190 12.8
2014-Sep-20 21:15 190 12.8
2014-Sep-20 21:05 190 13.3
2014-Sep-20 20:55 190 13.3
2014-Sep-20 20:45 190 12.8
2014-Sep-20 20:35 190 12.8
2014-Sep-20 20:25 190 12.8
2014-Sep-20 20:15 190 12.8
2014-Sep-20 20:05 190 12.8
2014-Sep-20 19:55 190 13.3
2014-Sep-20 19:45 190 13.3
2014-Sep-20 19:35 190 13.3
2014-Sep-20 19:25 190 13.9
2014-Sep-20 19:15 190 0 gusting 1 13.9
2014-Sep-20 19:05 190 13.9
2014-Sep-20 18:55 190 13.9
2014-Sep-20 18:45 190 13.9
2014-Sep-20 18:35 190 14.4
2014-Sep-20 18:25 190 14.4
2014-Sep-20 18:15 190 14.4
2014-Sep-20 18:05 190 15.0
2014-Sep-20 17:55 190 15.0
2014-Sep-20 17:45 190 15.0
2014-Sep-20 17:35 190 0 gusting 1 15.0
2014-Sep-20 17:25 190 0 gusting 1 15.6
2014-Sep-20 17:15 190 0 gusting 2 15.6
2014-Sep-20 17:05 190 1 gusting 4 16.1
2014-Sep-20 16:55 190 0 gusting 2 16.1
2014-Sep-20 16:45 190 0 gusting 2 16.1
2014-Sep-20 16:35 190 1 gusting 2 16.1
2014-Sep-20 16:25 190 0 gusting 4 16.7
2014-Sep-20 16:15 190 2 gusting 5 16.7
2014-Sep-20 16:05 190 0 gusting 4 16.7
2014-Sep-20 15:55 190 0 gusting 5 16.7
2014-Sep-20 15:45 190 0 gusting 5 17.2
2014-Sep-20 15:35 190 1 gusting 5 17.2
2014-Sep-20 15:25 190 1 gusting 2 17.2
2014-Sep-20 15:15 190 0 gusting 2 17.8
2014-Sep-20 15:05 190 2 gusting 5 17.2
2014-Sep-20 14:55 190 1 gusting 4 17.2
2014-Sep-20 14:45 190 1 gusting 4 17.2
2014-Sep-20 14:35 190 1 gusting 5 17.2
2014-Sep-20 14:25 190 1 gusting 6 16.7
2014-Sep-20 14:15 193 2 gusting 5 16.7
2014-Sep-20 14:05 192 1 gusting 5 16.7
2014-Sep-20 13:55 195 2 gusting 6 16.7
2014-Sep-20 13:45 196 1 gusting 5 16.7
2014-Sep-20 13:35 197 0 gusting 5 17.2
2014-Sep-20 13:25 197 1 gusting 5 16.7
2014-Sep-20 13:15 196 1 gusting 5 16.7
2014-Sep-20 13:05 196 2 gusting 5 16.7
2014-Sep-20 12:55 196 4 gusting 5 16.7
2014-Sep-20 12:45 197 1 gusting 5 16.7
2014-Sep-20 12:35 196 1 gusting 5 16.7
2014-Sep-20 12:25 196 2 gusting 5 16.7
2014-Sep-20 12:15 196 3 gusting 6 16.7
2014-Sep-20 12:05 179 2 gusting 6 16.1
2014-Sep-20 11:55 177 2 gusting 5 16.1
2014-Sep-20 11:45 177 2 gusting 5 16.1
2014-Sep-20 11:35 178 0 gusting 5 15.6
2014-Sep-20 11:25 177 2 gusting 5 15.6
2014-Sep-20 11:15 178 0 gusting 5 16.1
2014-Sep-20 11:05 177 2 gusting 5 15.6
2014-Sep-20 10:55 177 2 gusting 5 16.1
2014-Sep-20 10:45 178 2 gusting 5 16.1
2014-Sep-20 10:35 177 2 gusting 6 16.7
2014-Sep-20 10:25 177 2 gusting 5 17.2
2014-Sep-20 10:15 173 4 gusting 6 16.7
2014-Sep-20 10:05 165 2 gusting 6 16.7
2014-Sep-20 09:55 173 1 gusting 5 16.7
2014-Sep-20 09:45 173 1 gusting 5 16.7
2014-Sep-20 09:35 173 2 gusting 5 16.1
2014-Sep-20 09:25 173 2 gusting 6 16.7
2014-Sep-20 09:15 171 2 gusting 5 16.7
2014-Sep-20 09:05 171 1 gusting 5 16.1
2014-Sep-20 08:55 172 1 gusting 5 15.0
2014-Sep-20 08:45 172 2 gusting 5 16.1
2014-Sep-20 08:35 171 0 gusting 5 16.1
2014-Sep-20 08:25 172 1 gusting 5 15.6
2014-Sep-20 08:15 171 4 gusting 6 15.6
2014-Sep-20 08:05 158 1 gusting 6 15.0
2014-Sep-20 07:55 139 1 gusting 6 15.6
2014-Sep-20 07:45 128 1 gusting 6 15.6
2014-Sep-20 07:35 073 0 gusting 4 16.1
2014-Sep-20 07:25 053 0 gusting 2 15.6
2014-Sep-20 07:15 053 0 gusting 2 15.0
2014-Sep-20 07:05 053 1 gusting 4 15.0
2014-Sep-20 06:55 053 0 gusting 2 14.4
2014-Sep-20 06:45 053 14.4
2014-Sep-20 06:35 053 13.3
2014-Sep-20 06:25 053 12.2
2014-Sep-20 06:15 053 0 gusting 1 11.7
2014-Sep-20 06:05 053 0 gusting 1 11.1
2014-Sep-20 05:55 053 0 gusting 2 10.0
2014-Sep-20 05:45 053 0 gusting 1 9.4
2014-Sep-20 05:35 053 8.9
2014-Sep-20 05:25 053 8.9
2014-Sep-20 05:15 052 8.9
2014-Sep-20 05:05 053 8.9
2014-Sep-20 04:55 053 8.9
2014-Sep-20 04:45 053 8.9
2014-Sep-20 04:35 053 8.9
2014-Sep-20 04:25 053 9.4
2014-Sep-20 04:15 053 1 gusting 1 9.4
2014-Sep-20 04:05 053 0 gusting 2 10.0
2014-Sep-20 03:55 053 1 gusting 2 8.9
2014-Sep-20 03:45 053 8.9
2014-Sep-20 03:35 053 1 gusting 1 8.9
2014-Sep-20 03:25 053 8.9
2014-Sep-20 03:15 053 8.9
2014-Sep-20 03:05 053 9.4
2014-Sep-20 02:55 053 10.0
2014-Sep-20 02:45 053 10.0
2014-Sep-20 02:35 053 10.6
2014-Sep-20 02:25 053 11.1
2014-Sep-20 02:15 053 1 gusting 4 11.1
2014-Sep-20 02:05 053 0 gusting 2 10.6
2014-Sep-20 01:55 053 10.0
2014-Sep-20 01:45 053 10.0
2014-Sep-20 01:35 053 10.6
2014-Sep-20 01:25 053 0 gusting 1 10.6
2014-Sep-20 01:15 053 11.1
2014-Sep-20 01:05 053 0 gusting 2 11.1
2014-Sep-20 00:55 053 1 gusting 2 10.6
2014-Sep-20 00:45 053 0 gusting 1 11.1
2014-Sep-20 00:35 053 0 gusting 2 11.1
2014-Sep-20 00:25 053 0 gusting 2 11.1
2014-Sep-20 00:15 053 11.7
2014-Sep-20 00:05 053 11.7
2014-Sep-19 23:55 053 0 gusting 1 11.1
2014-Sep-19 23:45 053 0 gusting 1 11.1
2014-Sep-19 23:35 053 11.7
2014-Sep-19 23:25 053 11.7
2014-Sep-19 23:15 053 11.7
2014-Sep-19 23:05 053 0 gusting 1 11.7
2014-Sep-19 22:55 053 12.2
2014-Sep-19 22:45 053 12.2
2014-Sep-19 22:35 053 12.2
2014-Sep-19 22:25 053 12.2
2014-Sep-19 22:15 053 12.8
2014-Sep-19 22:05 053 12.8